STARLINK-2533, 48294

Orbit data source: Space-Track

STARLINK-2533, 48294 is a payload satellite owned by SpaceX/Seattle (US) in LEO that was launched on Thu, 29 Apr 2021 UTC via an FALCON 9 launch vehicle from the Air Force Eastern Test Range (AFETR). Payload-class satellites include a variety of spacecraft equipped with specific instruments for various scientific and technological missions. These include communications satellites like Starlink; space stations such as the ISS; scientific satellites like the Hubble; Earth observation satellites from companies like Planet Labs, Umbra, and HawkEye 360; GPS; miniature CubeSats for education and research; and military/defense satellites.

Loading next visibility...
Identifier
48294, 2021-036U
Orbit
LEO
Country
Flag of USUS
Related business
Manufacturer
SpaceX/Seattle
Mission
Operational Commercial Communications
Bus & Motor
STARLINK, Unknown motor
Mass
260 kg wet, ~248 kg dry
Launch date (UTC)
2021-04-29 (5 years ago)
Launch vehicle
FALCON 9
Launch site
Air Force Eastern Test Range (AFETR)
Object type
Payload
Rocket body
Debris
Shape & HBR
Box + 1 Pan, 10.1 m
Radar Cross Section
13.562 m², Large (>1 m²)

Expand to show TLE details & history
Last TLE update: 4 hours ago

TLE from 4 hours ago
0 STARLINK-2533
1 48294U 21036U   26036.33335648  .00075463  00000-0  26033-2 0  9992
2 48294  53.1561 225.5194 0001358  79.8081  54.0140 15.29327154  5758
Epoch: 2026-02-05T08:00Z
TLE epoch observation values (Epoch: 2026-02-05T08:00:01.999Z)
Latitude
35.3731°
Longitude
118.08447°
Altitude
479.926 km
Speed
7.631 km/s
True Right ascension
00h 54m 19s
True Declination
35° 12' 16"
Sunlit
Object was in daylight at epoch
Visualization orbit readout
Latitude
Unknown
Longitude
Unknown
Altitude
Unknown
Speed
Unknown
Apparent Right ascension
Unknown
Apparent Declination
Unknown
Sunlit
N/A
Visualization observer readout
Local Sidereal Time
13:34:30
Azimuth
Unknown
Elevation
Unknown
Doppler factor
Unknown
Orbital elements
Apogee altitude
479.011 km
Perigee altitude
477.148 km
Semi-major axis
6,856.216 km
Eccentricity
0.00014
Inclination
53.1561°
RAAN
225.5194°
Arg. of periapsis
79.8081°
True anomaly
54.02659°
Mean anomaly
54.014°
Eccentric anomaly
54.0203°
Mean motion
3.82311 °/min
Orbital period
94.16 mins
BSTAR
0.0026033
Loading maneuver chart data...
Computing Atmospheric mass density...
Loading historical data...
Loading historical data...
Loading historical data...
Loading historical data...
Loading historical data...
Loading historical data...
Loading historical data...

Documentation

Showing up to 5 results
|